GW1854 Weather Reports


time (UTC)temp
C
wind
direction
speed
KPH
gust
KPH
rain 1hr
cm
rain 24hr
cm
rain mn
cm
humidity
%
barometer
mb
20260507143122 15 290 12.9 30.6 0.00 0.00 0.00 47 1010.4
20260507142122 14 300 12.9 35.4 0.00 0.00 0.00 48 1010.3
20260507141122 14 308 12.9 40.2 0.00 0.00 0.00 49 1010.2
20260507140123 13 292 14.5 37.0 0.00 0.00 0.00 50 1010.0
20260507135143 13 297 16.1 37.0 0.00 0.00 0.00 51 1010.0
20260507134123 13 294 17.7 37.0 0.00 0.00 0.00 51 1010.0
20260507133124 12 299 12.9 30.6 0.00 0.00 0.00 54 1009.9
20260507132123 12 306 19.3 46.7 0.00 0.00 0.00 54 1009.9
20260507131124 12 302 16.1 35.4 0.00 0.00 0.00 54 1009.7
20260507130122 12 295 14.5 35.4 0.00 0.00 0.00 56 1009.7
20260507125124 12 286 14.5 35.4 0.00 0.00 0.00 56 1009.5
20260507124122 12 286 16.1 32.2 0.00 0.00 0.00 57 1009.5
20260507123144 12 282 12.9 29.0 0.00 0.00 0.00 58 1009.4
20260507122144 12 280 12.9 29.0 0.00 0.00 0.00 58 1009.3
20260507121143 12 280 12.9 29.0 0.00 0.00 0.00 58 1009.3
20260507120123 12 275 11.3 22.5 0.00 0.00 0.00 58 1009.2
20260507115122 12 283 12.9 29.0 0.00 0.00 0.00 58 1009.0
20260507114122 12 273 11.3 27.4 0.00 0.00 0.00 58 1009.0
20260507113123 12 276 11.3 25.7 0.00 0.00 0.00 59 1009.0
20260507112122 12 274 11.3 20.9 0.00 0.00 0.00 60 1008.9
20260507111144 12 270 12.9 25.7 0.00 0.00 0.00 60 1008.7
20260507110122 12 269 11.3 27.4 0.00 0.00 0.00 61 1008.7
20260507105122 12 270 9.7 24.1 0.00 0.00 0.00 62 1008.7
20260507104123 12 267 9.7 20.9 0.00 0.00 0.00 62 1008.7
20260507103122 12 266 8.0 20.9 0.00 0.00 0.00 63 1008.7
20260507102125 12 261 1.6 14.5 0.00 0.00 0.00 63 1008.7
20260507101122 12 260 0.0 11.3 0.00 0.00 0.00 63 1008.5
20260507100123 12 266 1.6 16.1 0.00 0.00 0.00 63 1008.5
20260507095143 12 264 0.0 12.9 0.00 0.00 0.00 62 1008.5
20260507094123 12 266 0.0 12.9 0.00 0.00 0.00 62 1008.5
20260507093123 12 270 3.2 14.5 0.00 0.00 0.00 62 1008.5
20260507092122 12 237 1.6 11.3 0.00 0.00 0.00 62 1008.5
20260507091122 12 219 1.6 12.9 0.00 0.00 0.00 62 1008.4
20260507090122 12 247 0.0 8.0 0.00 0.00 0.00 62 1008.4
20260507085123 12 248 0.0 0.0 0.00 0.00 0.00 62 1008.4
20260507084122 12 241 0.0 9.7 0.00 0.00 0.00 62 1008.4
20260507083124 12 225 1.6 11.3 0.00 0.00 0.00 61 1008.4
20260507082122 12 248 0.0 0.0 0.00 0.00 0.00 61 1008.4
20260507081143 12 243 6.4 17.7 0.00 0.00 0.00 61 1008.5
20260507080124 12 256 8.0 20.9 0.00 0.00 0.00 61 1008.5
20260507075122 12 229 8.0 19.3 0.00 0.00 0.00 61 1008.4
20260507074123 12 238 6.4 20.9 0.00 0.00 0.00 60 1008.4
20260507073122 13 227 6.4 20.9 0.00 0.00 0.00 59 1008.5
20260507072143 13 225 4.8 16.1 0.00 0.00 0.00 59 1008.5
20260507071143 13 240 1.6 14.5 0.00 0.00 0.00 57 1008.5
20260507070122 13 203 0.0 0.0 0.00 0.00 0.00 57 1008.5
20260507065123 13 270 0.0 0.0 0.00 0.00 0.00 56 1008.5
20260507064144 13 270 0.0 0.0 0.00 0.00 0.00 56 1008.5
20260507063124 13 270 0.0 0.0 0.00 0.00 0.00 54 1008.5
20260507062122 13 180 0.0 0.0 0.00 0.00 0.00 56 1009.0
20260507061122 14 303 1.6 12.9 0.00 0.00 0.00 51 1008.9
20260507060143 13 315 0.0 3.2 0.00 0.00 0.00 53 1008.9
20260507055122 13 270 0.0 0.0 0.00 0.00 0.00 54 1008.7
20260507054122 14 68 0.0 0.0 0.00 0.00 0.00 54 1008.7
20260507053143 14 292 0.0 11.3 0.00 0.00 0.00 53 1008.9
20260507052144 14 279 4.8 19.3 0.00 0.00 0.00 53 1008.8
20260507051122 14 279 4.8 17.7 0.00 0.00 0.00 53 1008.8
20260507050122 14 276 0.0 11.3 0.00 0.00 0.00 53 1008.5
20260507045122 15 270 0.0 3.2 0.00 0.00 0.00 53 1008.5
20260507044122 15 274 1.6 17.7 0.00 0.00 0.00 52 1008.5
20260507043123 15 272 6.4 19.3 0.00 0.00 0.00 51 1008.4
20260507042122 15 259 1.6 12.9 0.00 0.00 0.00 48 1008.4
20260507041123 15 229 1.6 17.7 0.00 0.00 0.00 45 1008.3
20260507040122 16 270 0.0 3.2 0.00 0.00 0.00 41 1007.9
20260507035124 16 270 0.0 0.0 0.00 0.00 0.00 40 1007.5
20260507034143 16 77 0.0 16.1 0.00 0.00 0.00 39 1007.5
20260507033124 16 90 1.6 16.1 0.00 0.00 0.00 39 1007.4
20260507032122 16 255 6.4 19.3 0.00 0.00 0.00 38 1008.2
20260507031122 16 226 8.0 22.5 0.00 0.00 0.00 37 1008.2
20260507030123 17 185 4.8 27.4 0.00 0.00 0.00 35 1008.0
20260507025143 17 211 14.5 38.6 0.00 0.00 0.00 35 1008.0
20260507024123 17 243 8.0 30.6 0.00 0.00 0.00 35 1008.0
20260507023122 17 200 11.3 29.0 0.00 0.00 0.00 31 1008.0
20260507022122 17 200 4.8 22.5 0.00 0.00 0.00 31 1008.0
20260507021145 17 182 4.8 19.3 0.00 0.00 0.00 30 1007.8
20260507020122 17 176 6.4 17.7 0.00 0.00 0.00 30 1007.5
20260507015145 17 164 8.0 20.9 0.00 0.00 0.00 30 1007.2
20260507014143 18 121 8.0 24.1 0.00 0.00 0.00 29 1007.2
20260507013122 18 127 6.4 20.9 0.00 0.00 0.00 29 1007.2
20260507012122 18 134 6.4 19.3 0.00 0.00 0.00 29 1007.3
20260507011122 18 148 9.7 22.5 0.00 0.00 0.00 29 1007.2
20260507010123 18 118 9.7 27.4 0.00 0.00 0.00 28 1007.2
20260507005122 18 126 9.7 19.3 0.00 0.00 0.00 28 1007.0
20260507004123 18 134 11.3 24.1 0.00 0.00 0.00 28 1007.0
20260507003122 18 128 9.7 25.7 0.00 0.00 0.00 28 1006.9
20260507002123 18 120 8.0 20.9 0.00 0.00 0.00 28 1007.0
20260507001122 18 126 12.9 27.4 0.00 0.00 0.00 27 1007.0
20260507000122 19 112 11.3 24.1 0.00 0.00 0.00 27 1006.9
20260506235123 19 131 3.2 19.3 0.00 0.00 0.00 27 1007.0
20260506234122 19 129 8.0 20.9 0.00 0.00 0.00 27 1007.0
20260506233124 19 127 11.3 29.0 0.00 0.00 0.00 26 1006.9
20260506232122 20 134 4.8 17.7 0.00 0.00 0.00 25 1007.0
20260506231122 20 133 6.4 17.7 0.00 0.00 0.00 26 1007.0
20260506230122 19 128 11.3 25.7 0.00 0.00 0.00 26 1007.0
20260506225143 20 138 9.7 24.1 0.00 0.00 0.00 26 1007.2
20260506224123 20 123 11.3 24.1 0.00 0.00 0.00 26 1007.2
20260506223143 19 127 11.3 25.7 0.00 0.00 0.00 26 1007.4
20260506222144 19 117 12.9 32.2 0.00 0.00 0.00 26 1007.4
20260506221122 20 137 8.0 20.9 0.00 0.00 0.00 26 1007.5
20260506220145 20 121 11.3 29.0 0.00 0.00 0.00 25 1007.8
20260506215122 20 129 12.9 32.2 0.00 0.00 0.00 26 1007.9
20260506214123 20 113 11.3 29.0 0.00 0.00 0.00 25 1007.9
20260506213124 20 114 9.7 27.4 0.00 0.00 0.00 25 1008.0
20260506212123 20 144 6.4 25.7 0.00 0.00 0.00 25 1008.2
20260506211144 19 176 9.7 29.0 0.00 0.00 0.00 26 1008.3
20260506210123 20 116 12.9 30.6 0.00 0.00 0.00 26 1008.4
20260506205123 19 124 12.9 32.2 0.00 0.00 0.00 26 1008.5
20260506204123 18 120 9.7 32.2 0.00 0.00 0.00 26 1008.5
20260506203123 18 127 14.5 37.0 0.00 0.00 0.00 26 1008.5
20260506202144 18 168 9.7 32.2 0.00 0.00 0.00 26 1008.8
20260506201124 18 151 14.5 32.2 0.00 0.00 0.00 27 1008.9
20260506200148 17 140 14.5 33.8 0.00 0.00 0.00 28 1009.2
20260506195124 17 181 12.9 32.2 0.00 0.00 0.00 28 1009.0
20260506194144 17 141 12.9 32.2 0.00 0.00 0.00 28 1009.0
20260506193124 17 161 12.9 37.0 0.00 0.00 0.00 28 1009.3
20260506192123 17 134 14.5 37.0 0.00 0.00 0.00 28 1009.2
20260506191125 16 157 11.3 37.0 0.00 0.00 0.00 29 1009.5
20260506190123 16 164 12.9 41.8 0.00 0.00 0.00 30 1009.5
20260506185123 16 161 12.9 32.2 0.00 0.00 0.00 30 1009.7
20260506184124 15 181 16.1 40.2 0.00 0.00 0.00 30 1009.7
20260506183123 16 139 14.5 37.0 0.00 0.00 0.00 30 1009.8
20260506182123 15 152 9.7 43.5 0.00 0.00 0.00 32 1009.9
20260506181125 15 119 19.3 48.3 0.00 0.00 0.00 32 1009.8
20260506180123 15 130 17.7 45.1 0.00 0.00 0.00 33 1010.0
20260506175124 15 119 17.7 48.3 0.00 0.00 0.00 33 1010.2
20260506174123 13 131 20.9 43.5 0.00 0.00 0.00 33 1010.2
20260506173125 13 146 17.7 37.0 0.00 0.00 0.00 33 1010.3
20260506172123 13 133 19.3 43.5 0.00 0.00 0.00 34 1010.5
20260506171123 13 142 17.7 37.0 0.00 0.00 0.00 35 1010.7
20260506170124 13 131 19.3 40.2 0.00 0.00 0.00 35 1010.8
20260506165123 13 146 14.5 33.8 0.00 0.00 0.00 34 1010.9
20260506164125 13 123 17.7 38.6 0.00 0.00 0.00 35 1010.9
20260506163144 12 150 16.1 37.0 0.00 0.00 0.00 37 1011.0
20260506162125 12 147 16.1 35.4 0.00 0.00 0.00 37 1011.2
20260506161144 12 132 12.9 32.2 0.00 0.00 0.00 37 1011.3
20260506160123 11 144 16.1 35.4 0.00 0.00 0.00 39 1011.4
20260506155145 10 157 11.3 37.0 0.00 0.00 0.00 39 1011.5
20260506154123 10 158 16.1 41.8 0.00 0.00 0.00 40 1011.5
20260506153125 10 160 17.7 41.8 0.00 0.00 0.00 41 1011.5
20260506152123 9 163 17.7 40.2 0.00 0.00 0.00 41 1011.7
20260506151123 9 163 17.7 43.5 0.00 0.00 0.00 41 1011.8
20260506150123 8 175 19.3 41.8 0.00 0.00 0.00 42 1011.9
20260506145144 8 180 17.7 40.2 0.00 0.00 0.00 42 1012.0
20260506144145 8 181 16.1 43.5 0.00 0.00 0.00 42 1012.0